Stations météo

réclame
Mon MeteoGroup
Bujaraloz, Espagne (8165): Température de l'air & dewpoint: 09.08.2018 01:00:00 - 15.08.2018 01:00:00 (CEST)Bujaraloz, Espagne (8165): Vitesse du vent & gusts: 09.08.2018 01:00:00 - 15.08.2018 01:00:00 (CEST)Bujaraloz, Espagne (8165): Direction du vent: 09.08.2018 01:00:00 - 15.08.2018 01:00:00 (CEST)Bujaraloz, Espagne (8165): reduced air pressure: 09.08.2018 01:00:00 - 15.08.2018 01:00:00 (CEST)Bujaraloz, Espagne (8165): visibility: 09.08.2018 01:00:00 - 15.08.2018 01:00:00 (CEST)Bujaraloz, Espagne (8165): Ensoleillement: 09.08.2018 01:00:00 - 15.08.2018 01:00:00 (CEST)Bujaraloz, Espagne (8165): Quantités de précipitations: 09.08.2018 01:00:00 - 15.08.2018 01:00:00 (CEST)
Date & Time tt [°C] td [°C] ff [km/h] ff [knt] fx [km/h] fx [knt] dd ppp [hPa] vv [km] sd [min] rr [mm]
15.08.2018 01:00:00 - - - - - - - - - - -
15.08.2018 00:00:00 21,6 12,2 30 16 41 22 W 1017,1 20 0 0,0
14.08.2018 23:00:00 22,8 12,1 30 16 40 22 W 1016,8 20 0 0,0
14.08.2018 22:00:00 24,0 12,0 32 17 43 23 W 1016,0 20 0 0,0
14.08.2018 21:00:00 25,4 12,2 30 16 44 24 WNW 1014,7 20 53 0,0
14.08.2018 20:00:00 27,0 11,9 29 15 45 25 WNW 1014,3 20 60 -
14.08.2018 19:00:00 28,1 12,4 30 16 48 26 WNW 1014,3 20 60 0,0
14.08.2018 18:00:00 28,1 12,0 33 18 49 26 WNW 1014,4 20 60 0,0
14.08.2018 17:00:00 28,0 12,0 36 19 54 29 WNW 1014,8 20 60 0,0
14.08.2018 16:00:00 27,3 12,1 37 20 52 28 WNW 1015,2 20 60 0,0
14.08.2018 15:00:00 26,8 12,1 35 19 53 29 WNW 1015,7 20 60 0,0
14.08.2018 14:00:00 26,2 12,3 34 18 51 28 WNW 1016,2 20 60 -
14.08.2018 13:00:00 25,0 12,5 36 19 52 28 NW 1016,5 20 60 0,0
14.08.2018 12:00:00 24,6 12,8 35 19 53 29 NW 1016,9 20 60 0,0
14.08.2018 11:00:00 23,3 12,3 34 19 49 26 WNW 1017,1 20 49 0,0
14.08.2018 10:00:00 21,8 13,2 40 22 49 27 W 1016,8 20 60 0,0
14.08.2018 09:00:00 20,7 13,4 36 19 47 26 WNW 1016,9 20 60 0,0
14.08.2018 08:00:00 19,8 13,5 25 13 38 21 W 1016,5 20 22 -
14.08.2018 07:00:00 20,0 13,5 29 15 38 21 W 1016,2 20 0 0,0
14.08.2018 06:00:00 20,3 13,5 28 15 43 23 W 1015,3 20 0 0,0
14.08.2018 05:00:00 20,7 13,4 24 13 41 22 W 1015,3 20 0 0,0
14.08.2018 04:00:00 21,4 13,1 31 17 45 24 W 1015,2 20 0 0,0
14.08.2018 03:00:00 21,7 12,8 34 18 50 27 W 1014,5 20 0 0,0
14.08.2018 02:00:00 22,3 12,5 36 19 51 28 W 1014,0 20 0 -
14.08.2018 01:00:00 23,1 13,6 35 19 52 28 W 1013,7 20 0 0,0
14.08.2018 00:00:00 24,7 13,9 34 18 48 26 WNW 1012,9 20 0 0,0
13.08.2018 23:00:00 27,8 11,8 29 15 50 27 NW 1011,6 20 0 0,0
13.08.2018 22:00:00 29,5 15,3 35 19 45 24 NNW 1009,9 20 0 0,0
13.08.2018 21:00:00 31,2 15,2 22 12 29 16 WNW 1008,8 20 2 0,0
13.08.2018 20:00:00 32,2 14,3 19 10 27 15 WNW 1008,1 20 53 -
13.08.2018 19:00:00 32,9 15,9 11 6 21 12 WNW 1007,9 20 60 0,0
13.08.2018 18:00:00 33,1 16,5 7 4 22 12 NNW 1008,2 20 60 0,0
13.08.2018 17:00:00 32,8 16,6 10 6 22 12 WSW 1008,8 20 60 0,0
13.08.2018 16:00:00 32,6 16,5 10 6 23 12 WSW 1009,5 20 60 0,0
13.08.2018 15:00:00 30,9 15,7 7 4 18 10 W 1010,1 20 60 0,0
13.08.2018 14:00:00 29,8 16,6 7 4 20 11 SW 1010,9 20 60 -
13.08.2018 13:00:00 28,6 16,5 8 4 19 11 WSW 1011,7 20 60 0,0
13.08.2018 12:00:00 25,5 16,6 10 5 19 11 WSW 1012,4 20 60 0,0
13.08.2018 11:00:00 24,0 16,8 8 4 16 9 W 1012,5 20 53 0,0
13.08.2018 10:00:00 22,0 17,0 12 7 20 11 W 1012,5 20 59 0,0
13.08.2018 09:00:00 20,1 16,9 16 8 21 11 W 1012,3 20 27 0,0
13.08.2018 08:00:00 19,5 16,9 17 9 23 12 W 1011,9 20 0 -
13.08.2018 07:00:00 19,5 17,1 15 8 18 10 W 1011,4 20 0 0,0
13.08.2018 06:00:00 21,2 17,4 8 4 15 8 N 1011,1 20 0 0,0
13.08.2018 05:00:00 21,7 18,3 12 6 18 10 ENE 1010,8 20 0 0,0
13.08.2018 04:00:00 22,0 18,4 14 7 16 9 E 1011,0 20 0 0,0
13.08.2018 03:00:00 22,3 17,9 13 7 16 8 ENE 1011,0 20 0 0,0
13.08.2018 02:00:00 22,4 17,3 10 5 15 8 ENE 1011,6 20 0 -
13.08.2018 01:00:00 22,8 17,5 13 7 23 12 ENE 1011,8 20 0 0,0
13.08.2018 00:00:00 23,7 16,5 16 8 24 13 E 1012,7 20 0 0,0
12.08.2018 23:00:00 24,0 17,2 5 3 29 16 ESE 1013,1 20 0 0,0
12.08.2018 22:00:00 24,1 17,4 12 7 36 19 ENE 1012,0 20 0 0,0
12.08.2018 21:00:00 24,0 16,8 16 9 29 16 SE 1012,5 20 0 0,0
12.08.2018 20:00:00 23,4 16,5 12 6 38 20 S 1013,7 20 0 -
12.08.2018 19:00:00 22,8 16,4 20 11 71 38 NE 1012,6 20 0 0,2
12.08.2018 18:00:00 30,5 20,5 19 11 47 26 SSE 1011,3 20 0 0,0
12.08.2018 17:00:00 31,6 20,5 18 10 46 25 SSE 1010,6 20 7 0,0
12.08.2018 16:00:00 33,3 19,8 39 21 54 29 SE 1009,4 20 60 0,0
12.08.2018 15:00:00 36,0 19,0 18 10 29 16 ESE 1010,7 20 60 0,0
12.08.2018 14:00:00 32,9 20,1 16 9 22 12 NE 1011,7 20 60 -
12.08.2018 13:00:00 31,3 20,0 9 5 15 8 NE 1013,2 20 60 0,0
12.08.2018 12:00:00 29,4 20,5 7 4 13 7 ENE 1014,1 20 60 0,0
12.08.2018 11:00:00 26,9 20,3 9 5 15 8 NNE 1014,6 20 52 0,0
12.08.2018 10:00:00 26,0 20,1 4 2 10 6 SE 1014,8 20 60 0,0
12.08.2018 09:00:00 24,3 20,4 4 2 9 5 ENE 1015,0 20 60 0,0
12.08.2018 08:00:00 23,2 20,7 8 5 16 8 E 1014,8 20 5 -
12.08.2018 07:00:00 23,1 20,6 12 6 18 10 E 1014,5 20 0 0,0
12.08.2018 06:00:00 23,4 20,5 13 7 18 10 E 1014,5 20 0 0,0
12.08.2018 05:00:00 23,7 20,5 15 8 19 10 E 1014,6 20 0 0,0
12.08.2018 04:00:00 24,0 20,5 10 5 14 8 E 1014,9 20 0 0,0
12.08.2018 03:00:00 24,3 21,4 10 5 21 11 E 1015,1 20 0 0,0
12.08.2018 02:00:00 24,6 21,5 14 8 20 11 E 1015,5 20 0 -
12.08.2018 01:00:00 24,9 21,4 11 6 22 12 E 1015,9 20 0 0,0
12.08.2018 00:00:00 25,3 21,4 10 6 26 14 ESE 1016,1 20 0 0,0
11.08.2018 23:00:00 25,8 21,3 13 7 26 14 ESE 1016,1 20 0 0,0
11.08.2018 22:00:00 26,5 21,3 16 9 26 14 ESE 1015,7 20 0 0,0
11.08.2018 21:00:00 28,0 20,8 16 8 29 16 SE 1014,9 20 0 0,0
11.08.2018 20:00:00 29,1 20,8 19 11 38 20 SE 1015,1 20 0 -
11.08.2018 19:00:00 30,4 20,1 24 13 37 20 SE 1015,4 20 0 0,0
11.08.2018 18:00:00 32,1 19,7 20 11 36 20 SE 1015,3 20 59 0,0
11.08.2018 17:00:00 33,4 19,1 16 9 31 17 SE 1015,2 20 60 0,0
11.08.2018 16:00:00 33,0 18,4 14 7 25 13 NE 1016,1 20 60 0,0
11.08.2018 15:00:00 31,1 17,4 14 7 20 11 NE 1017,2 20 60 0,0
11.08.2018 14:00:00 29,6 17,5 14 8 19 10 NE 1018,3 20 60 -
11.08.2018 13:00:00 27,3 18,3 10 5 17 9 NE 1019,3 20 60 0,0
11.08.2018 12:00:00 25,7 19,1 10 5 17 9 ENE 1020,2 20 60 0,0
11.08.2018 11:00:00 24,6 19,4 8 4 21 11 WNW 1020,6 20 49 0,0
11.08.2018 10:00:00 23,2 19,1 8 4 16 9 WSW 1021,2 20 46 0,0
11.08.2018 09:00:00 22,2 19,2 6 3 11 6 SSE 1021,3 20 60 0,0
11.08.2018 08:00:00 20,1 18,6 11 6 16 9 W 1020,7 19 16 -
11.08.2018 07:00:00 20,9 18,8 4 2 14 8 S 1020,5 20 0 0,0
11.08.2018 06:00:00 21,8 19,3 10 5 17 9 E 1020,3 20 0 0,0
11.08.2018 05:00:00 21,8 18,8 10 5 17 9 ENE 1020,4 20 0 0,0
11.08.2018 04:00:00 22,4 18,4 13 7 19 10 ENE 1020,3 20 0 0,0
11.08.2018 03:00:00 22,7 18,7 12 6 17 9 ENE 1020,6 20 0 0,0
11.08.2018 02:00:00 22,9 18,2 10 6 16 9 ENE 1020,8 20 0 -
11.08.2018 01:00:00 23,1 17,8 9 5 25 14 E 1020,9 20 0 0,0
11.08.2018 00:00:00 23,5 17,9 14 7 22 12 ESE 1020,3 20 0 0,0
10.08.2018 23:00:00 24,1 17,6 17 9 23 12 E 1020,0 20 0 0,0
10.08.2018 22:00:00 25,3 17,2 14 7 22 12 E 1019,4 20 0 0,0
10.08.2018 21:00:00 26,4 17,5 15 8 29 16 ESE 1018,5 20 0 0,0
10.08.2018 20:00:00 27,8 17,1 19 10 32 17 ESE 1018,3 20 47 -
10.08.2018 19:00:00 29,2 16,4 22 12 31 17 ESE 1017,9 20 60 0,0
10.08.2018 18:00:00 29,0 16,2 15 8 33 18 ESE 1018,3 20 60 0,0
10.08.2018 17:00:00 29,2 16,4 16 9 26 14 E 1018,8 20 60 0,0
10.08.2018 16:00:00 27,5 14,1 13 7 25 13 NE 1020,0 20 60 0,0
10.08.2018 15:00:00 25,3 13,2 13 7 20 11 NNE 1021,1 20 60 0,0
10.08.2018 14:00:00 24,5 12,1 7 4 16 9 ENE 1021,7 20 41 -
10.08.2018 13:00:00 23,5 11,2 6 3 16 9 SSW 1022,4 20 15 0,0
10.08.2018 12:00:00 22,3 11,3 6 4 21 12 WSW 1022,7 20 31 0,0
10.08.2018 11:00:00 20,3 11,0 18 10 29 15 NW 1023,0 20 32 0,0
10.08.2018 10:00:00 19,2 11,2 24 13 35 19 WNW 1023,2 20 5 0,0
10.08.2018 09:00:00 18,8 11,3 17 9 23 12 WNW 1022,7 20 0 0,0
10.08.2018 08:00:00 18,0 11,6 8 4 25 14 WSW 1022,8 20 0 -
10.08.2018 07:00:00 17,9 11,2 15 8 21 12 W 1022,2 20 0 0,0
10.08.2018 06:00:00 18,7 11,6 11 6 23 13 W 1021,7 20 0 0,0
10.08.2018 05:00:00 19,0 11,6 19 10 35 19 W 1021,4 20 0 0,0
10.08.2018 04:00:00 19,0 11,3 22 12 44 24 W 1021,1 20 0 0,0
10.08.2018 03:00:00 19,2 11,4 36 20 46 25 W 1020,4 20 0 0,0
10.08.2018 02:00:00 19,6 11,1 31 17 42 23 WNW 1020,7 20 0 -
10.08.2018 01:00:00 20,4 11,6 34 18 49 26 W 1019,7 20 0 0,0
10.08.2018 00:00:00 21,4 11,1 27 15 54 29 W 1018,4 20 0 0,0
09.08.2018 23:00:00 22,4 10,5 37 20 52 28 W 1017,7 20 0 0,0
09.08.2018 22:00:00 23,3 11,0 35 19 56 30 WNW 1016,5 20 0 0,0
09.08.2018 21:00:00 25,1 12,0 38 20 56 30 WNW 1015,2 20 6 0,0
09.08.2018 20:00:00 26,5 13,0 35 19 46 25 WNW 1014,6 20 17 -
09.08.2018 19:00:00 28,1 13,3 35 19 43 23 WNW 1013,8 20 53 0,0
09.08.2018 18:00:00 28,9 13,9 27 14 38 21 WNW 1013,0 20 60 0,0
09.08.2018 17:00:00 29,0 14,4 27 15 39 21 WNW 1013,0 20 60 0,0
09.08.2018 16:00:00 28,5 14,3 29 16 40 22 NW 1013,0 20 60 0,0
09.08.2018 15:00:00 27,8 14,8 26 14 45 24 WNW 1013,1 20 60 0,0
09.08.2018 14:00:00 27,1 16,7 32 18 43 23 WNW 1012,7 20 60 -
09.08.2018 13:00:00 25,6 16,7 29 16 41 22 WNW 1013,5 20 60 0,0
09.08.2018 12:00:00 24,3 17,1 36 19 45 24 WNW 1013,1 20 60 0,0
09.08.2018 11:00:00 23,1 17,5 32 17 46 25 WNW 1012,7 20 60 0,0
09.08.2018 10:00:00 25,3 20,7 19 10 27 15 W 1011,7 20 50 0,0
09.08.2018 09:00:00 23,4 20,0 8 4 9 5 WNW 1011,1 20 8 0,0
09.08.2018 08:00:00 24,0 19,5 5 3 9 5 NE 1010,2 20 0 -
09.08.2018 07:00:00 23,8 18,0 7 4 16 8 SE 1009,3 20 0 0,0
09.08.2018 06:00:00 24,4 18,3 8 4 18 10 SSE 1009,2 20 0 0,0
09.08.2018 05:00:00 24,8 18,5 7 4 24 13 SE 1009,0 20 0 0,0
09.08.2018 04:00:00 24,6 19,8 11 6 32 18 SE 1008,8 20 0 0,0
09.08.2018 03:00:00 25,3 20,5 22 12 31 17 ESE 1008,9 20 0 0,0
09.08.2018 02:00:00 25,2 20,7 14 8 31 17 ESE 1009,2 20 0 -
09.08.2018 01:00:00 25,2 21,3 17 9 31 17 E 1009,4 20 0 0,0

tt = Température de l'air
td = dewpoint
ff = Vitesse du vent
fx = gusts
dd = Direction du vent
ppp = reduced air pressure
vv = visibility
sd = Ensoleillement
rr = Quantités de précipitations

stations d'obs. à proximité